Time,TemperatureF,DewpointF,PressureIn,WindDirection,WindDirectionDegrees,WindSpeedMPH,WindSpeedGustMPH,Humidity,HourlyPrecipIn,Conditions,Clouds,dailyrainin,SoftwareType,DateUTC
2013-03-11 00:00:00,49.4,34.4,28.77,NNW,328,0.0,0.0,56,0.00,,,0.00,VWS V14.01,2013-03-11 07:00:00,
2013-03-11 00:05:00,49.3,33.8,28.77,NNW,328,0.0,0.0,55,0.00,,,0.00,VWS V14.01,2013-03-11 07:05:00,
2013-03-11 00:10:00,49.1,33.7,28.77,NNW,328,0.0,0.0,55,0.00,,,0.00,VWS V14.01,2013-03-11 07:10:00,
2013-03-11 00:15:00,48.9,33.5,28.77,NNW,328,0.0,0.0,55,0.00,,,0.00,VWS V14.01,2013-03-11 07:15:00,
2013-03-11 00:20:00,48.8,33.4,28.77,NNW,328,0.0,0.0,55,0.00,,,0.00,VWS V14.01,2013-03-11 07:20:00,
2013-03-11 00:25:00,48.6,33.2,28.77,NNW,328,0.0,0.0,55,0.00,,,0.00,VWS V14.01,2013-03-11 07:25:00,
2013-03-11 00:30:00,48.5,32.6,28.77,NNW,328,0.0,0.0,54,0.00,,,0.00,VWS V14.01,2013-03-11 07:30:00,
2013-03-11 00:35:00,48.5,32.6,28.77,NNW,328,0.0,0.0,54,0.00,,,0.00,VWS V14.01,2013-03-11 07:35:00,
2013-03-11 00:40:00,48.6,32.7,28.77,NNW,328,0.0,0.0,54,0.00,,,0.00,VWS V14.01,2013-03-11 07:40:00,
2013-03-11 00:45:00,48.6,33.2,28.77,NNW,328,0.0,0.0,55,0.00,,,0.00,VWS V14.01,2013-03-11 07:45:00,
2013-03-11 00:50:00,48.7,33.3,28.77,NNW,328,0.0,0.0,55,0.00,,,0.00,VWS V14.01,2013-03-11 07:50:00,
2013-03-11 00:55:00,48.7,33.3,28.77,NNW,328,0.0,0.0,55,0.00,,,0.00,VWS V14.01,2013-03-11 07:55:00,
2013-03-11 01:00:00,48.6,33.6,28.77,NNW,328,0.0,0.0,56,0.00,,,0.00,VWS V14.01,2013-03-11 08:00:00,
2013-03-11 01:05:00,48.3,33.3,28.77,NNW,328,0.0,0.0,56,0.00,,,0.00,VWS V14.01,2013-03-11 08:05:00,
2013-03-11 01:10:00,48.1,33.2,28.77,NNW,328,0.0,0.0,56,0.00,,,0.00,VWS V14.01,2013-03-11 08:10:00,
2013-03-11 01:15:00,48.1,33.2,28.77,NNW,328,0.0,0.0,56,0.00,,,0.00,VWS V14.01,2013-03-11 08:15:00,
2013-03-11 01:20:00,47.9,33.0,28.77,NNW,328,0.0,0.0,56,0.00,,,0.00,VWS V14.01,2013-03-11 08:20:00,
2013-03-11 01:25:00,47.9,33.0,28.77,NNW,328,0.0,0.0,56,0.00,,,0.00,VWS V14.01,2013-03-11 08:25:00,
2013-03-11 01:30:00,47.7,32.8,28.77,NNW,328,0.0,0.0,56,0.00,,,0.00,VWS V14.01,2013-03-11 08:30:00,
2013-03-11 01:35:00,47.6,32.7,28.77,NNW,328,0.0,0.0,56,0.00,,,0.00,VWS V14.01,2013-03-11 08:35:00,
2013-03-11 01:40:00,47.5,32.6,28.77,NNW,328,0.0,0.0,56,0.00,,,0.00,VWS V14.01,2013-03-11 08:40:00,
2013-03-11 01:45:00,47.4,32.5,28.77,NNW,328,0.0,0.0,56,0.00,,,0.00,VWS V14.01,2013-03-11 08:45:00,
2013-03-11 01:50:00,47.3,32.4,28.77,NNW,328,0.0,0.0,56,0.00,,,0.00,VWS V14.01,2013-03-11 08:50:00,
2013-03-11 01:55:00,47.1,32.2,28.77,NNW,328,0.0,0.0,56,0.00,,,0.00,VWS V14.01,2013-03-11 08:55:00,
2013-03-11 02:00:00,47.2,32.3,28.77,NNW,328,0.0,0.0,56,0.00,,,0.00,VWS V14.01,2013-03-11 09:00:00,
2013-03-11 02:05:00,47.4,32.5,28.77,NNW,328,0.0,0.0,56,0.00,,,0.00,VWS V14.01,2013-03-11 09:05:00,
2013-03-11 02:10:00,47.6,32.7,28.77,NNW,328,0.0,0.0,56,0.00,,,0.00,VWS V14.01,2013-03-11 09:10:00,
2013-03-11 02:15:00,47.7,32.8,28.77,NNW,328,0.0,0.0,56,0.00,,,0.00,VWS V14.01,2013-03-11 09:15:00,
2013-03-11 02:20:00,47.6,33.1,28.77,NNW,328,0.0,0.0,57,0.00,,,0.00,VWS V14.01,2013-03-11 09:20:00,
2013-03-11 02:25:00,47.6,33.1,28.77,NNW,328,0.0,0.0,57,0.00,,,0.00,VWS V14.01,2013-03-11 09:25:00,
2013-03-11 02:30:00,47.4,33.0,28.77,NNW,328,0.0,0.0,57,0.00,,,0.00,VWS V14.01,2013-03-11 09:30:00,
2013-03-11 02:35:00,47.3,32.8,28.77,NNW,328,0.0,0.0,57,0.00,,,0.00,VWS V14.01,2013-03-11 09:35:00,
2013-03-11 02:40:00,47.2,32.8,28.77,NNW,328,0.0,0.0,57,0.00,,,0.00,VWS V14.01,2013-03-11 09:40:00,
2013-03-11 02:45:00,47.2,32.8,28.77,NNW,328,0.0,0.0,57,0.00,,,0.00,VWS V14.01,2013-03-11 09:45:00,
2013-03-11 02:50:00,47.3,32.8,28.77,NNW,328,0.0,0.0,57,0.00,,,0.00,VWS V14.01,2013-03-11 09:50:00,
2013-03-11 02:55:00,47.3,32.8,28.77,NNW,328,0.0,0.0,57,0.00,,,0.00,VWS V14.01,2013-03-11 09:55:00,
2013-03-11 03:00:00,47.1,33.1,28.77,NNW,328,0.0,0.0,58,0.00,,,0.00,VWS V14.01,2013-03-11 10:00:00,
2013-03-11 03:05:00,46.9,32.9,28.77,NNW,328,0.0,0.0,58,0.00,,,0.00,VWS V14.01,2013-03-11 10:05:00,
2013-03-11 03:10:00,46.8,32.8,28.77,NNW,328,0.0,0.0,58,0.00,,,0.00,VWS V14.01,2013-03-11 10:10:00,
2013-03-11 03:15:00,46.7,32.3,28.77,NNW,328,0.0,0.0,57,0.00,,,0.00,VWS V14.01,2013-03-11 10:15:00,
2013-03-11 03:20:00,46.7,32.3,28.77,NNW,328,0.0,0.0,57,0.00,,,0.00,VWS V14.01,2013-03-11 10:20:00,
2013-03-11 03:25:00,46.7,32.3,28.77,NNW,328,0.0,0.0,57,0.00,,,0.00,VWS V14.01,2013-03-11 10:25:00,
2013-03-11 03:30:00,46.7,32.3,28.77,NNW,328,0.0,0.0,57,0.00,,,0.00,VWS V14.01,2013-03-11 10:30:00,
2013-03-11 03:35:00,46.6,32.2,28.77,NNW,328,0.0,0.0,57,0.00,,,0.00,VWS V14.01,2013-03-11 10:35:00,
2013-03-11 03:40:00,46.5,32.1,28.77,NNW,328,0.0,0.0,57,0.00,,,0.00,VWS V14.01,2013-03-11 10:40:00,
2013-03-11 03:45:00,46.5,31.7,28.77,NNW,328,0.0,0.0,56,0.00,,,0.00,VWS V14.01,2013-03-11 10:45:00,
2013-03-11 03:50:00,46.3,31.9,28.77,NNW,328,0.0,0.0,57,0.00,,,0.00,VWS V14.01,2013-03-11 10:50:00,
2013-03-11 03:55:00,46.1,31.7,28.77,NNW,328,0.0,0.0,57,0.00,,,0.00,VWS V14.01,2013-03-11 10:55:00,
2013-03-11 04:00:00,46.0,31.6,28.77,NNW,328,0.0,0.0,57,0.00,,,0.00,VWS V14.01,2013-03-11 11:00:00,
2013-03-11 04:05:00,45.9,31.5,28.77,NNW,328,0.0,0.0,57,0.00,,,0.00,VWS V14.01,2013-03-11 11:05:00,
2013-03-11 04:10:00,45.8,31.5,28.77,NNW,328,0.0,0.0,57,0.00,,,0.00,VWS V14.01,2013-03-11 11:10:00,
2013-03-11 04:15:00,45.8,31.5,28.77,NNW,328,0.0,0.0,57,0.00,,,0.00,VWS V14.01,2013-03-11 11:15:00,
2013-03-11 04:20:00,45.8,31.5,28.77,NNW,328,0.0,0.0,57,0.00,,,0.00,VWS V14.01,2013-03-11 11:20:00,
2013-03-11 04:25:00,45.8,31.5,28.77,NNW,328,0.0,0.0,57,0.00,,,0.00,VWS V14.01,2013-03-11 11:25:00,
2013-03-11 04:30:00,45.9,31.5,28.77,NNW,328,0.0,0.0,57,0.00,,,0.00,VWS V14.01,2013-03-11 11:30:00,
2013-03-11 04:35:00,45.8,31.5,28.77,NNW,328,0.0,0.0,57,0.00,,,0.00,VWS V14.01,2013-03-11 11:35:00,
2013-03-11 04:40:00,45.7,31.4,28.77,NNW,328,0.0,0.0,57,0.00,,,0.00,VWS V14.01,2013-03-11 11:40:00,
2013-03-11 04:45:00,46.1,31.7,28.77,NNW,328,0.0,0.0,57,0.00,,,0.00,VWS V14.01,2013-03-11 11:45:00,
2013-03-11 04:50:00,46.2,32.2,28.77,NNW,328,0.0,0.0,58,0.00,,,0.00,VWS V14.01,2013-03-11 11:50:00,
2013-03-11 04:55:00,46.0,32.1,28.77,NNW,328,0.0,0.0,58,0.00,,,0.00,VWS V14.01,2013-03-11 11:55:00,
2013-03-11 05:00:00,45.9,32.0,28.77,NNW,328,0.0,0.0,58,0.00,,,0.00,VWS V14.01,2013-03-11 12:00:00,
2013-03-11 05:05:00,45.9,33.2,28.77,North,349,0.0,0.0,61,0.00,,,0.00,VWS V14.01,2013-03-11 12:05:00,
2013-03-11 05:10:00,46.2,32.2,28.77,North,349,0.0,0.0,58,0.00,,,0.00,VWS V14.01,2013-03-11 12:10:00,
2013-03-11 05:15:00,46.2,32.2,28.77,North,349,0.0,0.0,58,0.00,,,0.00,VWS V14.01,2013-03-11 12:15:00,
2013-03-11 05:20:00,45.9,32.0,28.77,North,349,0.0,0.0,58,0.00,,,0.00,VWS V14.01,2013-03-11 12:20:00,
2013-03-11 05:25:00,45.6,32.1,28.77,North,349,0.0,0.0,59,0.00,,,0.00,VWS V14.01,2013-03-11 12:25:00,
2013-03-11 05:30:00,45.4,31.9,28.77,North,349,0.0,0.0,59,0.00,,,0.00,VWS V14.01,2013-03-11 12:30:00,
2013-03-11 05:35:00,45.3,31.8,28.77,North,349,0.0,0.0,59,0.00,,,0.00,VWS V14.01,2013-03-11 12:35:00,
2013-03-11 05:40:00,45.5,32.0,28.77,North,349,0.0,0.0,59,0.00,,,0.00,VWS V14.01,2013-03-11 12:40:00,
2013-03-11 05:45:00,45.6,32.1,28.77,North,349,0.0,0.0,59,0.00,,,0.00,VWS V14.01,2013-03-11 12:45:00,
2013-03-11 05:50:00,45.6,32.1,28.77,North,349,0.0,0.0,59,0.00,,,0.00,VWS V14.01,2013-03-11 12:50:00,
2013-03-11 05:55:00,45.6,32.1,28.77,North,349,0.0,0.0,59,0.00,,,0.00,VWS V14.01,2013-03-11 12:55:00,
2013-03-11 06:00:00,45.6,32.1,28.77,North,349,0.0,0.0,59,0.00,,,0.00,VWS V14.01,2013-03-11 13:00:00,
2013-03-11 06:05:00,45.6,32.1,28.77,North,349,0.0,0.0,59,0.00,,,0.00,VWS V14.01,2013-03-11 13:05:00,
2013-03-11 06:10:00,45.7,32.2,28.77,North,349,0.0,0.0,59,0.00,,,0.00,VWS V14.01,2013-03-11 13:10:00,
2013-03-11 06:15:00,45.5,32.0,28.77,North,349,0.0,0.0,59,0.00,,,0.00,VWS V14.01,2013-03-11 13:15:00,
2013-03-11 06:20:00,45.3,31.8,28.77,North,349,0.0,0.0,59,0.00,,,0.00,VWS V14.01,2013-03-11 13:20:00,
2013-03-11 06:25:00,45.2,31.7,28.77,North,349,0.0,0.0,59,0.00,,,0.00,VWS V14.01,2013-03-11 13:25:00,
2013-03-11 06:30:00,45.1,31.6,28.77,North,349,0.0,0.0,59,0.00,,,0.00,VWS V14.01,2013-03-11 13:30:00,
2013-03-11 06:35:00,45.2,31.7,28.77,North,349,0.0,0.0,59,0.00,,,0.00,VWS V14.01,2013-03-11 13:35:00,
2013-03-11 06:40:00,45.2,31.7,28.77,North,349,0.0,0.0,59,0.00,,,0.00,VWS V14.01,2013-03-11 13:40:00,
2013-03-11 06:45:00,45.0,31.5,28.77,North,349,0.0,0.0,59,0.00,,,0.00,VWS V14.01,2013-03-11 13:45:00,
2013-03-11 06:50:00,45.0,31.5,28.77,North,349,0.0,0.0,59,0.00,,,0.00,VWS V14.01,2013-03-11 13:50:00,
2013-03-11 06:55:00,45.0,31.1,28.77,North,349,0.0,0.0,58,0.00,,,0.00,VWS V14.01,2013-03-11 13:55:00,
2013-03-11 07:00:00,45.0,31.1,28.77,North,349,0.0,0.0,58,0.00,,,0.00,VWS V14.01,2013-03-11 14:00:00,
2013-03-11 07:05:00,45.0,31.1,28.77,North,349,0.0,0.0,58,0.00,,,0.00,VWS V14.01,2013-03-11 14:05:00,
2013-03-11 07:10:00,45.2,31.3,28.77,North,349,0.0,0.0,58,0.00,,,0.00,VWS V14.01,2013-03-11 14:10:00,
2013-03-11 07:15:00,45.2,31.3,28.77,North,349,0.0,0.0,58,0.00,,,0.00,VWS V14.01,2013-03-11 14:15:00,
2013-03-11 07:20:00,45.2,30.9,28.77,North,349,0.0,0.0,57,0.00,,,0.00,VWS V14.01,2013-03-11 14:20:00,
2013-03-11 07:25:00,45.1,30.8,28.77,North,349,0.0,0.0,57,0.00,,,0.00,VWS V14.01,2013-03-11 14:25:00,
2013-03-11 07:30:00,45.1,30.8,28.77,North,349,0.0,0.0,57,0.00,,,0.00,VWS V14.01,2013-03-11 14:30:00,
2013-03-11 07:35:00,45.2,30.9,28.77,North,349,0.0,0.0,57,0.00,,,0.00,VWS V14.01,2013-03-11 14:35:00,
2013-03-11 07:40:00,45.3,31.0,28.77,North,349,0.0,0.0,57,0.00,,,0.00,VWS V14.01,2013-03-11 14:40:00,
2013-03-11 07:45:00,45.6,31.3,28.77,North,349,0.0,0.0,57,0.00,,,0.00,VWS V14.01,2013-03-11 14:45:00,
2013-03-11 07:50:00,46.0,31.6,28.77,South,188,0.0,0.0,57,0.00,,,0.00,VWS V14.01,2013-03-11 14:50:00,
2013-03-11 07:55:00,46.7,31.9,28.77,South,188,0.0,0.0,56,0.00,,,0.00,VWS V14.01,2013-03-11 14:55:00,
2013-03-11 08:00:00,47.4,32.5,28.77,South,188,0.0,0.0,56,0.00,,,0.00,VWS V14.01,2013-03-11 15:00:00,
2013-03-11 08:05:00,48.4,33.4,28.77,South,188,0.0,0.0,56,0.00,,,0.00,VWS V14.01,2013-03-11 15:05:00,
2013-03-11 08:10:00,49.6,34.6,28.77,South,188,0.0,0.0,56,0.00,,,0.00,VWS V14.01,2013-03-11 15:10:00,
2013-03-11 08:15:00,50.6,35.5,28.77,South,188,0.0,0.0,56,0.00,,,0.00,VWS V14.01,2013-03-11 15:15:00,
2013-03-11 08:20:00,51.8,36.2,28.77,South,188,0.0,0.0,55,0.00,,,0.00,VWS V14.01,2013-03-11 15:20:00,
2013-03-11 08:25:00,52.9,36.7,28.77,South,188,0.0,0.0,54,0.00,,,0.00,VWS V14.01,2013-03-11 15:25:00,
2013-03-11 08:30:00,54.1,37.4,28.77,South,188,0.0,0.0,53,0.00,,,0.00,VWS V14.01,2013-03-11 15:30:00,
2013-03-11 08:35:00,55.0,37.7,28.77,South,188,0.0,0.0,52,0.00,,,0.00,VWS V14.01,2013-03-11 15:35:00,
2013-03-11 08:40:00,56.0,38.6,28.77,South,188,0.0,0.0,52,0.00,,,0.00,VWS V14.01,2013-03-11 15:40:00,
2013-03-11 08:45:00,56.6,38.7,28.77,South,188,0.0,0.0,51,0.00,,,0.00,VWS V14.01,2013-03-11 15:45:00,
2013-03-11 08:50:00,57.0,39.1,28.77,South,191,0.0,2.0,51,0.00,,,0.00,VWS V14.01,2013-03-11 15:50:00,
2013-03-11 08:55:00,57.4,39.9,28.77,South,191,0.0,2.0,52,0.00,,,0.00,VWS V14.01,2013-03-11 15:55:00,
2013-03-11 09:00:00,57.6,39.1,28.77,SSW,194,0.0,2.0,50,0.00,,,0.00,VWS V14.01,2013-03-11 16:00:00,
2013-03-11 09:05:00,57.6,39.6,28.77,SSW,212,1.0,2.0,51,0.00,,,0.00,VWS V14.01,2013-03-11 16:05:00,
2013-03-11 09:10:00,57.7,40.2,28.77,SW,232,2.0,3.0,52,0.00,,,0.00,VWS V14.01,2013-03-11 16:10:00,
2013-03-11 09:15:00,57.6,39.6,28.77,WSW,248,3.0,6.0,51,0.00,,,0.00,VWS V14.01,2013-03-11 16:15:00,
2013-03-11 09:20:00,57.4,39.9,28.77,West,264,1.0,6.0,52,0.00,,,0.00,VWS V14.01,2013-03-11 16:20:00,
2013-03-11 09:25:00,57.3,39.8,28.77,SW,229,4.0,6.0,52,0.00,,,0.00,VWS V14.01,2013-03-11 16:25:00,
2013-03-11 09:30:00,57.6,40.1,28.77,SW,226,3.0,3.0,52,0.00,,,0.00,VWS V14.01,2013-03-11 16:30:00,
2013-03-11 09:35:00,57.9,40.4,28.77,SW,235,2.0,5.0,52,0.00,,,0.00,VWS V14.01,2013-03-11 16:35:00,
2013-03-11 09:40:00,58.3,40.8,28.77,SW,233,0.0,5.0,52,0.00,,,0.00,VWS V14.01,2013-03-11 16:40:00,
2013-03-11 09:45:00,59.0,40.9,28.77,WSW,245,3.0,5.0,51,0.00,,,0.00,VWS V14.01,2013-03-11 16:45:00,
2013-03-11 09:50:00,59.7,41.6,28.77,WSW,246,0.0,5.0,51,0.00,,,0.00,VWS V14.01,2013-03-11 16:50:00,
2013-03-11 09:55:00,60.7,42.0,28.77,West,259,4.0,5.0,50,0.00,,,0.00,VWS V14.01,2013-03-11 16:55:00,
2013-03-11 10:00:00,61.0,42.2,28.77,West,259,0.0,2.0,50,0.00,,,0.00,VWS V14.01,2013-03-11 17:00:00,
2013-03-11 10:05:00,61.1,41.8,28.77,WSW,254,0.0,4.0,49,0.00,,,0.00,VWS V14.01,2013-03-11 17:05:00,
2013-03-11 10:10:00,61.9,43.1,28.77,WSW,254,0.0,4.0,50,0.00,,,0.00,VWS V14.01,2013-03-11 17:10:00,
2013-03-11 10:15:00,62.4,42.5,28.77,WSW,244,0.0,4.0,48,0.00,,,0.00,VWS V14.01,2013-03-11 17:15:00,
2013-03-11 10:20:00,62.9,43.5,28.77,WSW,246,0.0,4.0,49,0.00,,,0.00,VWS V14.01,2013-03-11 17:20:00,
2013-03-11 10:25:00,62.4,44.0,28.77,SW,223,0.0,6.0,51,0.00,,,0.00,VWS V14.01,2013-03-11 17:25:00,
2013-03-11 10:30:00,62.6,45.2,28.77,SW,222,3.0,3.0,53,0.00,,,0.00,VWS V14.01,2013-03-11 17:30:00,
2013-03-11 10:35:00,62.6,44.8,28.77,SW,219,3.0,4.0,52,0.00,,,0.00,VWS V14.01,2013-03-11 17:35:00,
2013-03-11 10:40:00,62.7,44.8,28.77,SW,219,0.0,4.0,52,0.00,,,0.00,VWS V14.01,2013-03-11 17:40:00,
2013-03-11 10:45:00,63.2,44.3,28.77,WSW,243,3.0,4.0,50,0.00,,,0.00,VWS V14.01,2013-03-11 17:45:00,
2013-03-11 10:50:00,63.1,45.2,28.77,SW,227,3.0,5.0,52,0.00,,,0.00,VWS V14.01,2013-03-11 17:50:00,
2013-03-11 10:55:00,63.0,45.1,28.77,SW,225,1.0,5.0,52,0.00,,,0.00,VWS V14.01,2013-03-11 17:55:00,
2013-03-11 11:00:00,63.3,45.4,28.77,SW,218,0.0,1.0,52,0.00,,,0.00,VWS V14.01,2013-03-11 18:00:00,
2013-03-11 11:05:00,63.9,45.4,28.77,South,190,2.0,4.0,51,0.00,,,0.00,VWS V14.01,2013-03-11 18:05:00,
2013-03-11 11:10:00,63.5,45.1,28.77,SW,226,4.0,6.0,51,0.00,,,0.00,VWS V14.01,2013-03-11 18:10:00,
2013-03-11 11:15:00,63.4,45.5,28.77,SSW,205,3.0,6.0,52,0.00,,,0.00,VWS V14.01,2013-03-11 18:15:00,
2013-03-11 11:20:00,63.0,45.6,28.77,SW,217,3.0,6.0,53,0.00,,,0.00,VWS V14.01,2013-03-11 18:20:00,
2013-03-11 11:25:00,63.8,46.4,28.77,SSW,204,2.0,6.0,53,0.00,,,0.00,VWS V14.01,2013-03-11 18:25:00,
2013-03-11 11:30:00,63.5,46.6,28.77,SSW,211,2.0,6.0,54,0.00,,,0.00,VWS V14.01,2013-03-11 18:30:00,
2013-03-11 11:35:00,63.6,46.7,28.77,SW,218,1.0,6.0,54,0.00,,,0.00,VWS V14.01,2013-03-11 18:35:00,
2013-03-11 11:40:00,63.3,46.9,28.77,WSW,251,7.0,7.0,55,0.00,,,0.00,VWS V14.01,2013-03-11 18:40:00,
2013-03-11 11:45:00,62.3,46.0,28.77,South,191,4.0,10.0,55,0.00,,,0.00,VWS V14.01,2013-03-11 18:45:00,
2013-03-11 11:50:00,61.3,45.5,28.77,SW,233,6.0,10.0,56,0.00,,,0.00,VWS V14.01,2013-03-11 18:50:00,
2013-03-11 11:55:00,61.1,45.3,28.77,SW,227,7.0,10.0,56,0.00,,,0.00,VWS V14.01,2013-03-11 18:55:00,
2013-03-11 12:00:00,61.2,44.9,28.77,WSW,241,4.0,7.0,55,0.00,,,0.00,VWS V14.01,2013-03-11 19:00:00,
2013-03-11 12:05:00,61.3,45.0,28.77,WNW,284,4.0,8.0,55,0.00,,,0.00,VWS V14.01,2013-03-11 19:05:00,
2013-03-11 12:10:00,61.6,44.8,28.77,WSW,247,5.0,8.0,54,0.00,,,0.00,VWS V14.01,2013-03-11 19:10:00,
2013-03-11 12:15:00,62.2,44.9,28.77,SW,222,2.0,8.0,53,0.00,,,0.00,VWS V14.01,2013-03-11 19:15:00,
2013-03-11 12:20:00,62.5,45.2,28.77,WSW,252,5.0,10.0,53,0.00,,,0.00,VWS V14.01,2013-03-11 19:20:00,
2013-03-11 12:25:00,62.5,45.2,28.77,West,278,3.0,10.0,53,0.00,,,0.00,VWS V14.01,2013-03-11 19:25:00,
2013-03-11 12:30:00,63.0,45.1,28.77,SW,234,6.0,7.0,52,0.00,,,0.00,VWS V14.01,2013-03-11 19:30:00,
2013-03-11 12:35:00,63.0,44.6,28.77,SSW,196,3.0,9.0,51,0.00,,,0.00,VWS V14.01,2013-03-11 19:35:00,
2013-03-11 12:40:00,63.5,45.1,28.77,West,275,3.0,9.0,51,0.00,,,0.00,VWS V14.01,2013-03-11 19:40:00,
2013-03-11 12:45:00,63.4,44.5,28.77,WSW,252,6.0,9.0,50,0.00,,,0.00,VWS V14.01,2013-03-11 19:45:00,
2013-03-11 12:50:00,63.4,44.5,28.77,SW,234,4.0,10.0,50,0.00,,,0.00,VWS V14.01,2013-03-11 19:50:00,
2013-03-11 12:55:00,63.4,44.5,28.77,West,261,6.0,10.0,50,0.00,,,0.00,VWS V14.01,2013-03-11 19:55:00,
2013-03-11 13:00:00,63.9,44.9,28.77,WSW,237,4.0,5.0,50,0.00,,,0.00,VWS V14.01,2013-03-11 20:00:00,
2013-03-11 13:05:00,63.4,45.5,28.77,WSW,242,1.0,10.0,52,0.00,,,0.00,VWS V14.01,2013-03-11 20:05:00,
2013-03-11 13:10:00,63.3,44.9,28.77,SSW,206,5.0,11.0,51,0.00,,,0.00,VWS V14.01,2013-03-11 20:10:00,
2013-03-11 13:15:00,63.2,44.8,28.77,WSW,241,6.0,11.0,51,0.00,,,0.00,VWS V14.01,2013-03-11 20:15:00,
2013-03-11 13:20:00,63.2,44.3,28.77,SW,236,5.0,11.0,50,0.00,,,0.00,VWS V14.01,2013-03-11 20:20:00,
2013-03-11 13:25:00,64.0,45.0,28.77,West,270,4.0,11.0,50,0.00,,,0.00,VWS V14.01,2013-03-11 20:25:00,
2013-03-11 13:30:00,64.6,45.0,28.77,WSW,248,7.0,9.0,49,0.00,,,0.00,VWS V14.01,2013-03-11 20:30:00,
2013-03-11 13:35:00,65.7,45.5,28.77,WSW,239,0.0,9.0,48,0.00,,,0.00,VWS V14.01,2013-03-11 20:35:00,
2013-03-11 13:40:00,65.9,44.6,28.77,West,269,7.0,11.0,46,0.00,,,0.00,VWS V14.01,2013-03-11 20:40:00,
2013-03-11 13:45:00,65.0,44.3,28.77,SW,222,6.0,11.0,47,0.00,,,0.00,VWS V14.01,2013-03-11 20:45:00,
2013-03-11 13:50:00,64.3,44.2,28.77,SW,219,6.0,11.0,48,0.00,,,0.00,VWS V14.01,2013-03-11 20:50:00,
2013-03-11 13:55:00,64.5,44.4,28.77,SW,217,6.0,11.0,48,0.00,,,0.00,VWS V14.01,2013-03-11 20:55:00,
2013-03-11 14:00:00,65.0,44.3,28.77,WSW,254,5.0,5.0,47,0.00,,,0.00,VWS V14.01,2013-03-11 21:00:00,
2013-03-11 14:05:00,64.5,44.9,28.77,SW,223,2.0,9.0,49,0.00,,,0.00,VWS V14.01,2013-03-11 21:05:00,
2013-03-11 14:10:00,65.0,45.4,28.77,SSW,193,5.0,9.0,49,0.00,,,0.00,VWS V14.01,2013-03-11 21:10:00,
2013-03-11 14:15:00,65.6,44.3,28.77,WSW,254,3.0,9.0,46,0.00,,,0.00,VWS V14.01,2013-03-11 21:15:00,
2013-03-11 14:20:00,65.9,45.1,28.77,West,266,6.0,9.0,47,0.00,,,0.00,VWS V14.01,2013-03-11 21:20:00,
2013-03-11 14:25:00,65.9,45.1,28.77,SSW,213,3.0,9.0,47,0.00,,,0.00,VWS V14.01,2013-03-11 21:25:00,
2013-03-11 14:30:00,66.0,45.2,28.77,South,188,3.0,5.0,47,0.00,,,0.00,VWS V14.01,2013-03-11 21:30:00,
2013-03-11 14:35:00,65.6,44.8,28.77,SSW,205,5.0,10.0,47,0.00,,,0.00,VWS V14.01,2013-03-11 21:35:00,
2013-03-11 14:40:00,66.0,44.7,28.77,SSW,210,6.0,10.0,46,0.00,,,0.00,VWS V14.01,2013-03-11 21:40:00,
2013-03-11 14:45:00,64.9,44.8,28.77,SSE,156,2.0,10.0,48,0.00,,,0.00,VWS V14.01,2013-03-11 21:45:00,
2013-03-11 14:50:00,65.2,45.0,28.77,WSW,249,2.0,10.0,48,0.00,,,0.00,VWS V14.01,2013-03-11 21:50:00,
2013-03-11 14:55:00,64.9,45.3,28.77,South,190,2.0,10.0,49,0.00,,,0.00,VWS V14.01,2013-03-11 21:55:00,
2013-03-11 15:00:00,64.8,44.7,28.77,SW,227,5.0,5.0,48,0.00,,,0.00,VWS V14.01,2013-03-11 22:00:00,
2013-03-11 15:05:00,64.9,45.3,28.77,WSW,241,6.0,8.0,49,0.00,,,0.00,VWS V14.01,2013-03-11 22:05:00,
2013-03-11 15:10:00,64.4,45.4,28.77,SW,227,2.0,8.0,50,0.00,,,0.00,VWS V14.01,2013-03-11 22:10:00,
2013-03-11 15:15:00,64.3,45.3,28.77,West,268,3.0,9.0,50,0.00,,,0.00,VWS V14.01,2013-03-11 22:15:00,
2013-03-11 15:20:00,64.3,45.3,28.77,SSW,209,8.0,9.0,50,0.00,,,0.00,VWS V14.01,2013-03-11 22:20:00,
2013-03-11 15:25:00,64.3,45.3,28.77,WSW,238,5.0,9.0,50,0.00,,,0.00,VWS V14.01,2013-03-11 22:25:00,
2013-03-11 15:30:00,64.4,44.3,28.77,SSW,210,8.0,9.0,48,0.00,,,0.00,VWS V14.01,2013-03-11 22:30:00,
2013-03-11 15:35:00,64.8,45.7,28.77,SW,221,1.0,9.0,50,0.00,,,0.00,VWS V14.01,2013-03-11 22:35:00,
2013-03-11 15:40:00,65.1,44.9,28.77,WSW,238,5.0,9.0,48,0.00,,,0.00,VWS V14.01,2013-03-11 22:40:00,
2013-03-11 15:45:00,65.2,45.0,28.77,SW,222,0.0,9.0,48,0.00,,,0.00,VWS V14.01,2013-03-11 22:45:00,
2013-03-11 15:50:00,66.0,45.2,28.77,SW,227,2.0,9.0,47,0.00,,,0.00,VWS V14.01,2013-03-11 22:50:00,
2013-03-11 15:55:00,65.8,45.0,28.77,WSW,252,1.0,9.0,47,0.00,,,0.00,VWS V14.01,2013-03-11 22:55:00,
2013-03-11 16:00:00,65.8,45.0,28.77,WSW,244,6.0,8.0,47,0.00,,,0.00,VWS V14.01,2013-03-11 23:00:00,
2013-03-11 16:05:00,64.9,45.3,28.77,WSW,250,6.0,9.0,49,0.00,,,0.00,VWS V14.01,2013-03-11 23:05:00,
2013-03-11 16:10:00,64.9,45.3,28.77,West,267,4.0,9.0,49,0.00,,,0.00,VWS V14.01,2013-03-11 23:10:00,
2013-03-11 16:15:00,65.5,45.3,28.77,West,269,3.0,9.0,48,0.00,,,0.00,VWS V14.01,2013-03-11 23:15:00,
2013-03-11 16:20:00,65.8,44.5,28.77,WSW,244,3.0,9.0,46,0.00,,,0.00,VWS V14.01,2013-03-11 23:20:00,
2013-03-11 16:25:00,65.6,44.8,28.77,SW,230,6.0,9.0,47,0.00,,,0.00,VWS V14.01,2013-03-11 23:25:00,
2013-03-11 16:30:00,64.9,44.8,28.77,WSW,249,4.0,6.0,48,0.00,,,0.00,VWS V14.01,2013-03-11 23:30:00,
2013-03-11 16:35:00,65.0,45.4,28.77,WSW,240,3.0,9.0,49,0.00,,,0.00,VWS V14.01,2013-03-11 23:35:00,
2013-03-11 16:40:00,65.2,45.0,28.77,SW,226,6.0,9.0,48,0.00,,,0.00,VWS V14.01,2013-03-11 23:40:00,
2013-03-11 16:45:00,65.2,45.6,28.77,West,267,2.0,9.0,49,0.00,,,0.00,VWS V14.01,2013-03-11 23:45:00,
2013-03-11 16:50:00,65.5,45.8,28.77,WSW,242,7.0,9.0,49,0.00,,,0.00,VWS V14.01,2013-03-11 23:50:00,
2013-03-11 16:55:00,64.8,45.2,28.77,West,264,8.0,10.0,49,0.00,,,0.00,VWS V14.01,2013-03-11 23:55:00,
2013-03-11 17:00:00,64.2,45.7,28.77,West,265,1.0,5.0,51,0.00,,,0.00,VWS V14.01,2013-03-12 00:00:00,
2013-03-11 17:05:00,64.3,45.8,28.77,WNW,295,6.0,7.0,51,0.00,,,0.00,VWS V14.01,2013-03-12 00:05:00,
2013-03-11 17:10:00,64.0,45.5,28.77,West,261,2.0,8.0,51,0.00,,,0.00,VWS V14.01,2013-03-12 00:10:00,
2013-03-11 17:15:00,63.7,46.3,28.77,West,277,2.0,8.0,53,0.00,,,0.00,VWS V14.01,2013-03-12 00:15:00,
2013-03-11 17:20:00,63.8,46.8,28.77,WNW,291,4.0,8.0,54,0.00,,,0.00,VWS V14.01,2013-03-12 00:20:00,
2013-03-11 17:25:00,64.0,47.0,28.77,WNW,303,0.0,8.0,54,0.00,,,0.00,VWS V14.01,2013-03-12 00:25:00,
2013-03-11 17:30:00,64.0,47.5,28.77,SW,217,6.0,6.0,55,0.00,,,0.00,VWS V14.01,2013-03-12 00:30:00,
2013-03-11 17:35:00,63.1,46.7,28.77,NW,311,3.0,8.0,55,0.00,,,0.00,VWS V14.01,2013-03-12 00:35:00,
2013-03-11 17:40:00,62.6,47.2,28.77,West,261,4.0,8.0,57,0.00,,,0.00,VWS V14.01,2013-03-12 00:40:00,
2013-03-11 17:45:00,62.2,46.8,28.77,West,273,7.0,9.0,57,0.00,,,0.00,VWS V14.01,2013-03-12 00:45:00,
2013-03-11 17:50:00,62.5,47.1,28.77,SSW,209,4.0,9.0,57,0.00,,,0.00,VWS V14.01,2013-03-12 00:50:00,
2013-03-11 17:55:00,62.5,47.5,28.77,WSW,256,5.0,9.0,58,0.00,,,0.00,VWS V14.01,2013-03-12 00:55:00,
2013-03-11 18:00:00,62.1,47.2,28.77,WNW,294,3.0,3.0,58,0.00,,,0.00,VWS V14.01,2013-03-12 01:00:00,
2013-03-11 18:05:00,62.5,47.5,28.77,WNW,294,1.0,3.0,58,0.00,,,0.00,VWS V14.01,2013-03-12 01:05:00,
2013-03-11 18:10:00,61.9,47.0,28.77,WSW,257,4.0,9.0,58,0.00,,,0.00,VWS V14.01,2013-03-12 01:10:00,
2013-03-11 18:15:00,61.6,46.7,28.77,WSW,242,5.0,9.0,58,0.00,,,0.00,VWS V14.01,2013-03-12 01:15:00,
2013-03-11 18:20:00,60.8,46.4,28.77,SW,226,3.0,9.0,59,0.00,,,0.00,VWS V14.01,2013-03-12 01:20:00,
2013-03-11 18:25:00,60.4,46.0,28.77,SW,234,0.0,9.0,59,0.00,,,0.00,VWS V14.01,2013-03-12 01:25:00,
2013-03-11 18:30:00,60.3,45.0,28.77,SW,224,3.0,4.0,57,0.00,,,0.00,VWS V14.01,2013-03-12 01:30:00,
2013-03-11 18:35:00,59.8,44.5,28.77,West,261,3.0,6.0,57,0.00,,,0.00,VWS V14.01,2013-03-12 01:35:00,
2013-03-11 18:40:00,59.0,43.3,28.77,SW,232,2.0,8.0,56,0.00,,,0.00,VWS V14.01,2013-03-12 01:40:00,
2013-03-11 18:45:00,58.4,41.3,28.77,WSW,255,0.0,8.0,53,0.00,,,0.00,VWS V14.01,2013-03-12 01:45:00,
2013-03-11 18:50:00,57.8,39.3,28.77,WSW,250,1.0,8.0,50,0.00,,,0.00,VWS V14.01,2013-03-12 01:50:00,
2013-03-11 18:55:00,57.4,37.9,28.77,WNW,283,3.0,8.0,48,0.00,,,0.00,VWS V14.01,2013-03-12 01:55:00,
2013-03-11 19:00:00,57.1,36.5,28.77,West,279,0.0,2.0,46,0.00,,,0.00,VWS V14.01,2013-03-12 02:00:00,
2013-03-11 19:05:00,56.8,35.7,28.77,West,261,3.0,5.0,45,0.00,,,0.00,VWS V14.01,2013-03-12 02:05:00,
2013-03-11 19:10:00,56.6,34.4,28.77,West,279,3.0,6.0,43,0.00,,,0.00,VWS V14.01,2013-03-12 02:10:00,
2013-03-11 19:15:00,56.5,33.7,28.77,West,276,0.0,6.0,42,0.00,,,0.00,VWS V14.01,2013-03-12 02:15:00,
2013-03-11 19:20:00,56.4,33.0,28.77,West,276,0.0,6.0,41,0.00,,,0.00,VWS V14.01,2013-03-12 02:20:00,
2013-03-11 19:25:00,56.3,32.3,28.77,West,276,0.0,6.0,40,0.00,,,0.00,VWS V14.01,2013-03-12 02:25:00,
2013-03-11 19:30:00,56.2,31.6,28.77,West,275,4.0,4.0,39,0.00,,,0.00,VWS V14.01,2013-03-12 02:30:00,
2013-03-11 19:35:00,56.1,31.5,28.77,WSW,245,0.0,6.0,39,0.00,,,0.00,VWS V14.01,2013-03-12 02:35:00,
2013-03-11 19:40:00,56.1,31.5,28.77,WSW,252,2.0,6.0,39,0.00,,,0.00,VWS V14.01,2013-03-12 02:40:00,
2013-03-11 19:45:00,56.0,31.4,28.77,WSW,257,4.0,6.0,39,0.00,,,0.00,VWS V14.01,2013-03-12 02:45:00,
2013-03-11 19:50:00,56.0,31.4,28.77,West,265,4.0,6.0,39,0.00,,,0.00,VWS V14.01,2013-03-12 02:50:00,
2013-03-11 19:55:00,56.0,31.4,28.77,West,261,4.0,7.0,39,0.00,,,0.00,VWS V14.01,2013-03-12 02:55:00,
2013-03-11 20:00:00,56.0,31.4,28.77,West,261,3.0,3.0,39,0.00,,,0.00,VWS V14.01,2013-03-12 03:00:00,
2013-03-11 20:05:00,55.9,31.3,28.77,West,261,0.0,4.0,39,0.00,,,0.00,VWS V14.01,2013-03-12 03:05:00,
2013-03-11 20:10:00,55.7,31.1,28.77,West,261,0.0,4.0,39,0.00,,,0.00,VWS V14.01,2013-03-12 03:10:00,
2013-03-11 20:15:00,55.6,31.1,28.77,West,261,1.0,4.0,39,0.00,,,0.00,VWS V14.01,2013-03-12 03:15:00,
2013-03-11 20:20:00,55.6,31.1,28.77,West,261,0.0,4.0,39,0.00,,,0.00,VWS V14.01,2013-03-12 03:20:00,
2013-03-11 20:25:00,55.5,31.6,28.77,West,261,0.0,4.0,40,0.00,,,0.00,VWS V14.01,2013-03-12 03:25:00,
2013-03-11 20:30:00,55.4,31.5,28.77,West,261,0.0,0.0,40,0.00,,,0.00,VWS V14.01,2013-03-12 03:30:00,
2013-03-11 20:35:00,55.4,30.9,28.77,West,261,0.0,0.0,39,0.00,,,0.00,VWS V14.01,2013-03-12 03:35:00,
2013-03-11 20:40:00,55.3,30.8,28.77,West,261,0.0,0.0,39,0.00,,,0.00,VWS V14.01,2013-03-12 03:40:00,
2013-03-11 20:45:00,55.2,30.7,28.77,West,261,0.0,0.0,39,0.00,,,0.00,VWS V14.01,2013-03-12 03:45:00,
2013-03-11 20:50:00,55.1,30.6,28.77,West,261,0.0,0.0,39,0.00,,,0.00,VWS V14.01,2013-03-12 03:50:00,
2013-03-11 20:55:00,55.1,30.6,28.77,West,261,0.0,0.0,39,0.00,,,0.00,VWS V14.01,2013-03-12 03:55:00,
2013-03-11 21:00:00,55.0,30.5,28.77,West,261,0.0,0.0,39,0.00,,,0.00,VWS V14.01,2013-03-12 04:00:00,
2013-03-11 21:05:00,54.9,30.4,28.77,West,261,0.0,0.0,39,0.00,,,0.00,VWS V14.01,2013-03-12 04:05:00,
2013-03-11 21:10:00,54.8,30.3,28.77,West,261,1.0,2.0,39,0.00,,,0.00,VWS V14.01,2013-03-12 04:10:00,
2013-03-11 21:15:00,54.6,30.2,28.77,West,261,0.0,2.0,39,0.00,,,0.00,VWS V14.01,2013-03-12 04:15:00,
2013-03-11 21:20:00,54.6,30.8,28.77,West,261,0.0,2.0,40,0.00,,,0.00,VWS V14.01,2013-03-12 04:20:00,
2013-03-11 21:25:00,54.6,30.8,28.77,West,261,1.0,4.0,40,0.00,,,0.00,VWS V14.01,2013-03-12 04:25:00,
2013-03-11 21:30:00,54.6,31.4,28.77,West,261,0.0,1.0,41,0.00,,,0.00,VWS V14.01,2013-03-12 04:30:00,
2013-03-11 21:35:00,54.5,31.3,28.77,West,261,0.0,1.0,41,0.00,,,0.00,VWS V14.01,2013-03-12 04:35:00,
2013-03-11 21:40:00,54.3,31.7,28.77,West,261,0.0,2.0,42,0.00,,,0.00,VWS V14.01,2013-03-12 04:40:00,
2013-03-11 21:45:00,54.2,31.0,28.77,West,261,0.0,2.0,41,0.00,,,0.00,VWS V14.01,2013-03-12 04:45:00,
2013-03-11 21:50:00,54.2,31.0,28.77,West,261,0.0,2.0,41,0.00,,,0.00,VWS V14.01,2013-03-12 04:50:00,
2013-03-11 21:55:00,54.1,30.9,28.77,West,261,0.0,2.0,41,0.00,,,0.00,VWS V14.01,2013-03-12 04:55:00,
2013-03-11 22:00:00,53.9,30.8,28.77,West,261,1.0,1.0,41,0.00,,,0.00,VWS V14.01,2013-03-12 05:00:00,
2013-03-11 22:05:00,53.8,30.7,28.77,West,261,0.0,1.0,41,0.00,,,0.00,VWS V14.01,2013-03-12 05:05:00,
2013-03-11 22:10:00,53.5,31.0,28.77,West,261,0.0,1.0,42,0.00,,,0.00,VWS V14.01,2013-03-12 05:10:00,
2013-03-11 22:15:00,53.3,30.8,28.77,West,261,0.0,1.0,42,0.00,,,0.00,VWS V14.01,2013-03-12 05:15:00,
2013-03-11 22:20:00,53.2,30.1,28.77,West,261,1.0,1.0,41,0.00,,,0.00,VWS V14.01,2013-03-12 05:20:00,
2013-03-11 22:25:00,53.2,30.1,28.77,West,261,0.0,1.0,41,0.00,,,0.00,VWS V14.01,2013-03-12 05:25:00,
2013-03-11 22:30:00,53.0,30.5,28.77,West,261,0.0,0.0,42,0.00,,,0.00,VWS V14.01,2013-03-12 05:30:00,
2013-03-11 22:35:00,53.0,30.5,28.77,West,261,0.0,1.0,42,0.00,,,0.00,VWS V14.01,2013-03-12 05:35:00,
2013-03-11 22:40:00,52.7,30.3,28.77,West,261,0.0,1.0,42,0.00,,,0.00,VWS V14.01,2013-03-12 05:40:00,
2013-03-11 22:45:00,52.5,31.2,28.77,West,261,1.0,2.0,44,0.00,,,0.00,VWS V14.01,2013-03-12 05:45:00,
2013-03-11 22:50:00,52.2,31.5,28.77,West,261,0.0,2.0,45,0.00,,,0.00,VWS V14.01,2013-03-12 05:50:00,
2013-03-11 22:55:00,51.9,31.8,28.77,West,261,0.0,2.0,46,0.00,,,0.00,VWS V14.01,2013-03-12 05:55:00,
2013-03-11 23:00:00,51.8,32.8,28.77,West,261,0.0,0.0,48,0.00,,,0.00,VWS V14.01,2013-03-12 06:00:00,
2013-03-11 23:05:00,51.6,33.1,28.77,West,261,1.0,2.0,49,0.00,,,0.00,VWS V14.01,2013-03-12 06:05:00,
2013-03-11 23:10:00,51.7,33.7,28.77,West,261,0.0,2.0,50,0.00,,,0.00,VWS V14.01,2013-03-12 06:10:00,
2013-03-11 23:15:00,51.7,34.7,28.77,West,261,0.0,2.0,52,0.00,,,0.00,VWS V14.01,2013-03-12 06:15:00,
2013-03-11 23:20:00,51.7,35.1,28.77,West,261,0.0,2.0,53,0.00,,,0.00,VWS V14.01,2013-03-12 06:20:00,
2013-03-11 23:25:00,51.6,35.0,28.77,West,261,0.0,2.0,53,0.00,,,0.00,VWS V14.01,2013-03-12 06:25:00,
2013-03-11 23:30:00,51.5,35.4,28.77,West,261,0.0,0.0,54,0.00,,,0.00,VWS V14.01,2013-03-12 06:30:00,
2013-03-11 23:35:00,51.3,35.2,28.77,West,261,0.0,0.0,54,0.00,,,0.00,VWS V14.01,2013-03-12 06:35:00,
2013-03-11 23:40:00,51.2,35.1,28.77,West,261,0.0,0.0,54,0.00,,,0.00,VWS V14.01,2013-03-12 06:40:00,
2013-03-11 23:45:00,51.1,35.0,28.77,West,261,0.0,0.0,54,0.00,,,0.00,VWS V14.01,2013-03-12 06:45:00,
2013-03-11 23:50:00,50.9,34.9,28.77,West,261,0.0,0.0,54,0.00,,,0.00,VWS V14.01,2013-03-12 06:50:00,
2013-03-11 23:55:00,50.8,34.8,28.77,West,261,0.0,0.0,54,0.00,,,0.00,VWS V14.01,2013-03-12 06:55:00,